Temperature
23 22 22 22 22 22 22 22 22 21 21 20 20 19 19 18 18 18 17 17 17 16 16 16 16 16 16 16 17 17 17 17 17 17 17 17 17 17 17 18 18 18 18
22 22 22 22 22 22 22 22 22 22 21 21 20 20 19 18 18 17 17 17 16 16 16 16 16 16 16 16 16 16 16 16 16 16 16 17 17 17 17 17 17 18 18
23 22 21 21 21 21 22 22 22 22 21 21 20 19 19 18 18 17 17 16 16 16 16 16 16 16 15 16 16 16 15 16 16 16 16 16 18 18 17 17 17 17 17
23 22 22 21 21 21 21 21 21 21 21 20 20 19 19 18 18 17 17 16 16 16 15 15 15 15 15 15 15 15 15 15 15 16 16 16 16 17 17 17 17 17 17
22 22 21 21 20 20 21 21 20 20 20 20 19 19 18 18 17 17 16 16 15 15 15 15 15 15 15 14 15 15 14 14 15 15 15 15 15 15 16 17 17 17 16
21 21 20 20 20 20 20 20 20 19 19 19 19 19 18 18 17 17 16 16 15 15 14 14 14 14 14 14 14 14 14 14 14 14 15 15 15 16 16 16 16 16 16
20 19 19 19 19 19 19 19 19 19 18 18 18 18 18 17 17 16 16 16 15 15 14 14 14 14 14 14 14 14 14 14 14 14 14 14 15 15 15 16 16 16 16
18 17 17 17 17 18 18 18 18 18 17 17 17 17 17 16 16 16 16 15 15 15 15 14 14 14 14 14 13 13 13 13 13 14 14 14 14 15 15 15 15 15 15
15 15 15 15 15 15 16 16 16 16 16 16 16 16 16 16 16 16 16 15 15 15 14 14 14 13 13 13 14 13 13 13 13 13 14 14 14 14 15 15 15 15 15
15 14 13 13 13 13 13 14 14 14 14 15 15 15 15 15 15 15 15 15 15 14 14 14 13 13 13 13 13 13 13 13 13 13 13 13 14 14 14 14 14 15 14
14 14 13 13 13 13 13 12 12 13 13 14 14 14 14 14 14 14 14 14 14 14 14 14 13 13 13 13 13 13 13 13 13 13 13 13 14 14 14 14 14 14 14
14 13 13 12 12 12 12 12 12 12 12 12 13 13 13 13 13 13 13 14 14 14 13 13 13 12 12 12 12 12 12 12 13 13 13 13 13 13 14 14 14 14 14
13 13 12 12 11 11 11 11 11 11 11 11 11 11 12 12 12 12 13 13 13 13 13 13 12 12 12 12 12 12 12 12 12 12 13 13 13 13 13 13 13 13 13
12 12 11 11 10 10 10 10 10 10 10 10 10 10 11 11 11 11 12 12 12 12 12 12 12 12 12 12 12 12 12 12 12 12 12 12 12 13 13 13 13 13 12
10 10 9 9 9 9 9 9 9 9 9 9 9 10 10 10 10 10 11 11 11 11 11 12 12 12 12 12 12 11 11 11 11 12 12 12 12 12 12 12 12 12 12
10 9 10 10 10 10 10 9 9 9 9 9 9 9 9 9 9 9 10 10 10 10 11 11 11 11 11 12 12 11 11 11 11 11 11 11 11 11 11 11 11 12 12
11 11 11 10 10 10 10 10 9 9 9 9 9 9 9 9 9 9 9 9 9 10 10 10 11 11 11 11 11 11 11 11 11 11 11 11 11 11 11 11 11 11 11
11 11 10 10 10 10 10 9 9 9 9 9 9 9 9 9 9 9 9 9 9 9 9 10 10 10 11 11 11 11 11 11 10 11 11 11 10 10 10 10 10 10 10
11 10 10 10 10 9 9 9 9 9 9 9 9 9 9 9 9 9 9 9 9 9 9 9 9 10 10 11 11 11 10 10 10 10 10 10 10 10 10 10 10 10 10
10 10 9 9 9 9 9 9 9 9 9 9 9 9 8 8 8 8 8 8 8 8 8 9 9 9 10 10 10 11 10 10 10 10 10 10 10 10 10 10 10 10 9
10 9 9 9 9 9 8 8 8 8 8 8 8 8 8 8 8 8 8 8 8 8 8 8 8 9 9 9 10 10 10 11 11 10 10 10 10 10 10 10 10 10 10
9 9 9 9 8 8 8 8 8 8 8 8 7 7 7 7 8 8 8 8 7 8 8 8 8 8 9 9 9 10 10 10 11 11 10 10 10 10 10 10 10 10 10
9 9 9 8 8 8 8 8 7 7 7 7 7 7 7 7 7 7 7 8 8 8 8 8 8 8 8 8 9 9 10 10 10 11 10 10 10 10 10 10 10 10 10
9 8 8 8 8 8 7 7 7 7 7 7 6 6 7 7 7 7 7 8 8 8 8 8 7 7 7 8 8 9 9 10 10 10 10 10 10 10 10 10 9 10 10
8 8 8 7 7 7 7 6 6 6 6 6 6 6 6 7 7 7 7 7 7 8 7 7 7 7 7 8 8 9 9 9 10 10 9 9 9 9 9 9 10 10 9
7 7 7 7 6 6 6 6 6 5 5 5 5 6 6 6 6 6 7 7 7 7 7 7 7 6 7 7 8 8 9 9 10 10 10 10 10 10 10 10 10 10 9
Wind_Speed
8 9 9 10 10 9 9 8 7 6 5 3 3 2 3 3 3 4 4 6 7 8 8 10 9 10 10 11 13 12 14 12 10 10 11 13 15 15 13 14 13 14 13
8 9 9 9 10 10 9 8 8 7 6 4 2 2 3 3 4 4 4 5 6 8 8 9 11 10 10 12 12 12 11 11 9 8 8 9 10 13 15 14 13 14 11
8 9 9 9 9 9 9 8 8 7 6 5 4 3 3 4 4 4 4 5 7 8 8 10 11 11 12 11 11 12 13 11 10 10 9 8 9 7 8 12 12 12 11
5 6 7 7 7 7 7 6 7 7 6 6 5 4 4 5 5 5 6 7 7 8 9 9 10 11 11 11 12 12 11 12 12 11 12 13 11 8 7 8 10 12 11
2 2 3 3 3 4 5 5 5 6 6 6 5 5 5 5 5 6 6 8 7 7 8 9 10 10 11 12 12 12 13 12 13 12 11 12 13 14 12 10 8 9 9
1 2 2 2 1 2 4 4 5 5 5 5 5 5 5 6 7 8 8 8 7 7 8 9 10 10 10 11 12 12 14 13 14 13 12 12 11 11 12 14 12 9 8
5 6 6 6 4 3 3 4 5 5 4 5 5 5 6 7 8 8 8 8 8 8 8 10 10 10 11 12 12 13 13 14 15 14 13 13 13 12 12 12 11 10 7
11 10 10 9 8 7 6 5 4 4 3 4 4 4 6 7 7 7 8 8 8 9 9 10 11 12 12 12 12 12 13 13 14 15 15 13 13 12 12 12 10 9 8
15 14 14 13 12 11 11 9 8 6 6 5 5 5 6 7 8 9 9 9 8 9 10 10 11 12 12 12 12 11 13 13 13 14 14 13 12 11 11 11 10 10 8
14 14 13 14 13 13 12 12 10 9 9 9 8 7 7 8 9 10 10 10 10 9 10 11 11 12 12 12 12 12 12 12 12 11 12 12 11 10 10 10 9 9 7
12 12 12 12 12 12 12 12 11 11 10 11 10 10 10 10 10 10 11 11 10 10 10 10 11 11 11 11 11 12 12 12 11 11 11 12 11 9 8 8 8 7 7
10 11 11 11 11 12 11 11 11 11 11 11 11 12 12 12 12 12 12 11 12 11 10 10 11 11 11 10 11 11 10 10 10 9 9 10 8 8 7 6 6 6 6
11 11 11 11 11 12 11 11 11 11 11 11 11 11 12 12 13 14 13 12 12 12 11 10 10 10 10 10 9 9 8 7 7 6 6 6 5 5 4 4 5 5 6
12 12 12 11 11 11 11 11 11 11 11 11 10 11 11 12 12 13 13 13 12 12 12 11 10 10 9 9 8 7 6 5 4 4 3 2 1 3 4 4 6 7 9
12 11 11 11 11 11 10 10 10 10 10 11 11 11 11 11 12 12 13 13 12 13 12 12 11 10 9 7 6 5 4 3 3 3 4 4 5 6 5 6 8 9 9
13 13 13 13 13 13 13 13 13 12 12 13 13 13 12 12 12 12 13 12 12 12 12 13 12 11 9 2 1 5 3 1 1 3 5 6 9 12 13 13 11 9 9
16 17 18 17 17 17 17 17 17 16 15 15 16 15 14 14 13 13 13 13 12 12 12 12 12 12 8 6 5 5 4 3 3 4 6 7 9 10 11 13 14 13 11
19 21 20 20 20 19 19 19 18 18 18 18 18 17 16 16 15 14 13 12 11 11 11 11 12 12 9 10 9 7 6 4 4 5 8 9 9 10 11 12 13 12 11
22 21 21 22 21 21 20 20 19 19 19 19 18 18 17 17 16 16 15 13 12 11 11 11 11 12 9 12 12 10 8 7 7 7 8 10 10 10 11 14 14 13 11
22 22 22 23 22 21 20 21 21 20 20 19 19 18 17 18 18 17 16 14 12 12 11 10 10 11 10 11 14 13 9 9 9 8 8 9 11 10 8 13 14 14 13
24 24 24 22 21 21 21 22 22 22 21 20 19 19 18 18 18 17 16 14 13 12 11 11 9 9 9 9 15 15 10 11 11 11 10 9 11 9 5 8 11 13 13
25 25 23 23 22 22 22 23 23 22 21 20 20 20 19 18 17 16 15 15 14 13 11 9 9 7 7 8 12 15 12 8 11 11 11 11 12 9 6 7 13 13 11
26 25 25 25 23 22 22 24 23 22 22 22 21 20 19 18 17 17 17 15 14 12 10 8 6 5 5 7 11 14 12 8 8 9 13 15 15 13 8 13 14 12 8
26 25 25 25 24 23 23 23 23 22 22 22 21 19 19 18 18 15 15 14 13 12 10 8 6 5 5 7 9 11 10 10 10 12 15 15 11 9 12 12 11 9 8
25 24 24 24 25 24 23 23 22 21 22 21 20 19 18 18 16 16 14 15 13 10 10 9 6 5 6 8 12 13 14 15 14 15 13 12 12 12 12 12 10 9 9
25 25 25 25 25 24 23 22 21 20 20 18 18 16 15 13 14 14 14 14 15 11 12 11 9 7 8 8 11 14 14 15 19 17 14 14 13 13 13 12 11 10 10
Wind_Direction
167 173 176 176 176 178 177 179 172 175 177 184 214 236 262 279 288 293 314 309 311 314 306 301 304 294 287 285 282 277 271 264 257 258 256 251 247 248 247 245 246 246 248
173 173 169 170 173 169 167 167 169 168 174 175 198 245 292 289 298 302 305 304 311 312 305 308 301 297 293 283 281 278 275 272 258 248 257 261 252 239 238 238 239 243 243
178 173 171 168 167 165 166 165 165 165 177 185 201 210 232 257 270 290 292 306 310 307 308 303 300 300 291 287 285 281 274 273 266 247 245 253 256 255 231 230 234 236 237
174 170 171 166 167 165 162 166 173 176 184 198 217 239 273 295 311 304 306 307 300 305 307 304 301 297 293 290 283 279 277 271 268 257 245 249 264 264 255 230 228 228 233
166 160 163 162 170 181 180 184 189 196 200 211 216 236 261 285 295 299 298 298 302 302 305 307 305 300 294 293 290 286 277 270 266 263 257 251 249 247 253 254 239 228 228
57 32 18 18 274 234 219 217 215 223 223 227 233 247 268 280 291 295 302 302 306 307 310 310 306 299 297 294 288 284 277 271 268 265 259 252 247 240 239 246 246 242 231
30 23 15 6 353 330 302 266 254 251 251 251 253 260 269 274 274 285 295 300 306 310 317 311 304 300 297 292 288 282 277 273 267 262 258 253 250 252 249 248 248 244 232
36 30 23 15 10 9 1 345 331 318 311 293 286 278 272 273 280 281 289 294 298 305 312 304 300 298 297 294 290 283 277 273 269 265 260 257 253 250 246 245 243 238 227
40 37 33 28 25 24 22 15 11 7 359 344 324 300 292 287 286 283 274 280 285 293 298 298 298 299 300 298 294 284 281 278 272 267 262 255 253 249 245 241 238 235 226
42 38 33 29 26 24 24 22 21 17 9 358 344 331 318 304 291 283 282 282 282 284 288 291 295 299 300 299 296 290 283 279 274 268 264 259 255 248 242 237 234 232 230
31 27 24 20 18 16 16 14 12 9 5 360 351 342 333 323 306 291 283 278 275 276 279 285 291 295 299 303 301 299 296 288 283 276 266 259 256 250 242 233 228 221 210
14 13 9 7 5 3 0 0 358 356 353 350 346 344 337 330 319 307 295 284 274 270 272 279 285 290 297 303 304 304 304 297 290 285 276 266 255 243 235 224 213 201 186
353 353 353 351 349 346 344 342 341 340 339 338 337 338 336 332 324 315 304 291 278 270 268 271 278 286 292 297 302 305 310 312 310 305 292 281 257 230 210 194 173 157 144
333 336 337 336 335 330 327 325 324 322 321 320 318 320 323 321 318 316 309 298 286 274 267 264 269 276 282 287 295 301 312 325 332 339 336 317 247 171 152 142 136 132 128
316 318 316 314 311 309 305 303 302 302 302 301 300 300 304 309 312 315 313 305 292 281 273 266 264 265 267 273 287 294 302 324 355 21 30 47 75 91 113 125 126 129 128
299 298 297 298 297 296 294 293 291 288 286 284 284 285 289 295 301 307 309 307 299 289 279 268 263 259 257 145 301 284 263 247 74 75 74 79 85 87 87 88 92 106 127
300 301 305 305 304 302 301 298 297 293 287 283 282 281 282 284 288 295 301 304 303 296 286 275 264 256 241 174 200 252 252 198 148 120 110 99 95 97 103 95 89 80 74
307 307 307 305 303 302 300 298 297 295 291 288 286 285 284 284 285 286 291 298 301 298 290 282 272 259 235 184 192 214 218 175 147 135 125 120 119 116 117 114 105 95 79
304 303 303 302 301 300 299 298 296 294 291 289 288 288 287 286 284 284 285 289 294 296 292 282 276 264 239 191 190 207 195 166 152 144 137 133 129 125 129 121 114 108 97
302 301 300 299 297 297 298 295 292 291 290 290 290 289 287 284 282 282 281 280 283 286 287 280 274 266 251 202 192 207 199 168 154 144 140 138 136 141 143 134 130 126 123
300 299 298 296 296 296 294 291 290 288 289 289 288 285 283 281 278 276 274 272 273 280 284 280 271 260 253 214 196 206 208 176 166 160 158 147 139 149 151 150 138 134 135
300 300 298 295 293 292 290 288 287 287 287 286 283 281 279 277 276 274 272 268 267 271 274 272 269 255 239 227 205 204 221 211 173 167 159 146 148 149 156 139 127 140 154
301 300 297 295 293 291 289 287 287 287 285 282 280 279 277 274 272 270 268 264 258 259 267 263 264 258 237 216 198 195 207 221 184 154 123 135 145 145 134 132 144 165 163
301 301 299 296 294 293 291 288 287 285 282 279 277 274 272 270 268 265 262 260 258 256 259 257 259 256 239 216 194 189 187 173 152 132 124 135 155 149 127 148 167 177 155
303 301 299 297 295 294 291 289 288 286 282 279 275 273 268 266 267 264 258 258 258 257 260 260 250 244 241 222 201 190 184 182 164 150 151 156 157 156 158 164 164 155 151
303 301 299 297 296 295 292 290 287 283 279 277 274 271 267 264 262 262 259 240 239 229 219 232 238 239 233 233 210 199 179 161 152 162 165 166 168 166 164 163 160 160 158
Height
1506 1508 1509 1511 1514 1515 1517 1519 1521 1522 1523 1524 1525 1526 1526 1525 1524 1523 1520 1518 1516 1514 1511 1510 1507 1505 1503 1501 1500 1499 1497 1496 1497 1496 1495 1494 1494 1494 1494 1495 1496 1497 1499
1505 1506 1508 1510 1512 1514 1516 1518 1520 1521 1522 1523 1524 1523 1523 1523 1522 1520 1517 1515 1513 1510 1509 1506 1504 1502 1499 1496 1495 1493 1491 1490 1491 1490 1489 1488 1488 1486 1487 1488 1489 1490 1491
1505 1507 1508 1510 1512 1514 1515 1517 1518 1519 1521 1521 1522 1521 1520 1520 1519 1518 1515 1512 1509 1507 1504 1501 1499 1497 1495 1493 1490 1488 1487 1485 1485 1485 1485 1484 1481 1481 1481 1480 1481 1482 1483
1506 1507 1509 1511 1512 1514 1515 1516 1516 1518 1518 1519 1520 1520 1519 1518 1517 1514 1512 1509 1506 1503 1501 1498 1495 1492 1490 1488 1485 1484 1482 1481 1480 1479 1478 1478 1478 1478 1476 1476 1476 1476 1476
1507 1509 1510 1511 1512 1513 1514 1515 1515 1516 1516 1516 1517 1516 1516 1515 1514 1511 1508 1505 1503 1500 1497 1494 1491 1488 1485 1483 1480 1478 1476 1475 1474 1474 1473 1472 1472 1472 1472 1471 1472 1471 1471
1508 1509 1510 1511 1512 1513 1513 1514 1514 1514 1514 1514 1514 1513 1512 1511 1510 1507 1505 1503 1500 1497 1494 1491 1487 1484 1481 1478 1475 1472 1471 1469 1468 1467 1467 1466 1466 1465 1466 1466 1466 1466 1467
1509 1509 1510 1510 1510 1511 1511 1512 1512 1512 1511 1510 1510 1509 1508 1507 1505 1504 1502 1499 1497 1494 1490 1487 1483 1480 1477 1474 1470 1467 1465 1463 1461 1460 1459 1459 1459 1460 1460 1460 1460 1461 1462
1511 1510 1510 1510 1509 1509 1508 1509 1508 1508 1507 1506 1506 1505 1504 1503 1502 1500 1497 1495 1492 1490 1486 1482 1479 1476 1473 1469 1466 1463 1460 1457 1455 1454 1453 1452 1452 1453 1453 1454 1455 1456 1457
1514 1513 1512 1511 1509 1508 1506 1505 1505 1504 1503 1503 1502 1501 1499 1498 1497 1494 1492 1490 1488 1485 1482 1478 1475 1472 1468 1465 1461 1458 1455 1452 1450 1448 1447 1446 1446 1446 1447 1448 1450 1452 1452
1517 1516 1514 1512 1510 1508 1506 1505 1504 1502 1500 1499 1498 1497 1495 1493 1491 1489 1487 1485 1483 1480 1477 1474 1471 1468 1464 1461 1457 1453 1450 1447 1444 1442 1441 1440 1440 1441 1441 1442 1444 1446 1449
1520 1518 1516 1514 1512 1510 1507 1505 1503 1501 1499 1497 1494 1492 1490 1488 1486 1484 1482 1480 1477 1475 1472 1470 1467 1464 1460 1457 1453 1449 1446 1442 1440 1438 1436 1435 1435 1435 1436 1438 1439 1441 1444
1521 1519 1516 1514 1512 1509 1507 1504 1502 1499 1496 1494 1491 1488 1485 1483 1480 1478 1476 1474 1471 1469 1467 1465 1463 1460 1457 1453 1450 1446 1442 1439 1436 1434 1432 1431 1431 1431 1432 1433 1435 1438 1441
1520 1517 1515 1512 1510 1507 1504 1501 1498 1495 1493 1490 1486 1483 1481 1478 1474 1472 1470 1468 1465 1463 1462 1460 1458 1456 1453 1450 1447 1443 1440 1436 1433 1431 1429 1427 1427 1427 1429 1430 1432 1435 1438
1517 1515 1512 1509 1506 1503 1500 1497 1494 1491 1488 1485 1482 1479 1475 1473 1470 1467 1464 1461 1459 1457 1456 1454 1453 1451 1449 1447 1444 1441 1438 1435 1432 1429 1427 1425 1425 1425 1427 1429 1431 1433 1437
1513 1510 1507 1504 1501 1498 1495 1491 1488 1485 1482 1479 1477 1474 1471 1468 1465 1462 1459 1455 1453 1451 1449 1448 1447 1446 1445 1444 1442 1439 1437 1434 1431 1429 1427 1425 1424 1425 1426 1428 1431 1433 1436
1509 1506 1502 1499 1496 1492 1489 1486 1482 1479 1476 1473 1470 1468 1465 1462 1460 1457 1453 1450 1447 1444 1443 1442 1442 1442 1442 1440 1438 1437 1436 1434 1432 1429 1428 1426 1425 1426 1427 1429 1432 1435 1438
1504 1501 1498 1494 1491 1487 1484 1480 1477 1473 1470 1467 1464 1461 1459 1456 1454 1451 1448 1445 1441 1439 1436 1435 1435 1436 1436 1435 1435 1434 1434 1433 1432 1430 1429 1429 1428 1429 1429 1432 1435 1438 1442
1499 1495 1492 1488 1484 1480 1477 1473 1470 1466 1463 1460 1457 1455 1452 1450 1448 1445 1442 1439 1436 1433 1431 1429 1429 1429 1430 1431 1431 1432 1432 1432 1431 1431 1431 1431 1431 1432 1433 1435 1438 1441 1444
1493 1489 1485 1481 1476 1473 1469 1465 1462 1459 1455 1452 1449 1447 1445 1443 1440 1438 1436 1433 1431 1428 1425 1423 1422 1422 1424 1426 1427 1429 1430 1430 1431 1431 1432 1433 1434 1436 1437 1439 1441 1444 1448
1486 1481 1477 1473 1468 1465 1461 1457 1453 1450 1447 1444 1441 1439 1437 1434 1432 1430 1428 1426 1424 1422 1420 1417 1416 1416 1417 1420 1423 1425 1428 1429 1430 1432 1433 1435 1436 1438 1440 1443 1444 1447 1450
1478 1473 1468 1464 1460 1456 1452 1448 1444 1441 1438 1436 1433 1430 1428 1426 1424 1422 1420 1419 1417 1416 1414 1412 1410 1410 1411 1414 1417 1421 1424 1427 1429 1431 1434 1436 1438 1440 1443 1445 1448 1450 1452
1469 1464 1459 1454 1451 1447 1443 1438 1434 1432 1429 1426 1423 1421 1418 1417 1415 1413 1412 1411 1410 1409 1407 1406 1404 1404 1405 1408 1411 1416 1421 1425 1427 1430 1433 1435 1438 1441 1444 1447 1449 1451 1454
1459 1455 1450 1444 1440 1437 1433 1428 1424 1422 1419 1416 1413 1411 1409 1407 1406 1405 1404 1403 1402 1402 1401 1400 1399 1398 1399 1402 1406 1411 1417 1421 1426 1429 1432 1434 1438 1442 1445 1447 1450 1453 1456
1450 1445 1439 1433 1429 1426 1422 1418 1414 1411 1408 1404 1402 1400 1399 1397 1396 1395 1395 1394 1394 1394 1394 1394 1393 1393 1394 1396 1401 1406 1412 1418 1423 1426 1430 1434 1438 1442 1444 1447 1450 1454 1457
1440 1435 1429 1423 1418 1414 1410 1406 1402 1399 1396 1393 1391 1389 1388 1387 1386 1386 1385 1385 1386 1387 1387 1388 1387 1388 1389 1392 1397 1402 1409 1415 1420 1424 1429 1433 1437 1441 1444 1448 1451 1454 1456
1430 1425 1419 1413 1407 1402 1397 1394 1390 1387 1384 1381 1379 1378 1378 1377 1377 1376 1376 1376 1377 1378 1379 1380 1381 1382 1384 1386 1392 1399 1406 1412 1417 1423 1428 1432 1436 1440 1443 1446 1450 1453 1456